Location: Arthez
(43.0833°N, 0.2500°W)
Time: 06:33:16
(UTC+00:00)

Cosmos 304 Rocket - Pass Details

Date: 03 June 2022
Orbit: 679 x 686 km, 74.0° (Epoch: 03 July)

Event Time Altitude Azimuth Distance (km) Brightness Sun altitude
Exits shadow 22:36:20 28° 93° (E) 1,270 4.9 -21.8°
Drops below altitude 10° 22:40:08 10° 42° (NE) 2,141 6.7 -22.0°
Sets 22:42:42 0° 31° (NNE) 3,062 7.7 -22.2°
